,,Stat5,,Stat1,,Stat2,,Stat3,,Stat4,,Wind1,,Wind1,
time,status,PA1M_AVG,status,PR1M_SUM,status,RH1M_AVG,status,SR1M_AVG,status,TA1M_AVG,status,W1dAve1m,status,W1sAve1m,
2001-11-02, 00:00:00,VALID,919.889,VALID,0,VALID,98.3675,VALID,0.101885,VALID,18.8945,VALID,345,VALID,0,
2001-11-02, 00:01:00,VALID,919.886,VALID,0,VALID,98.3904,VALID,0.101885,VALID,18.8816,VALID,345,VALID,0,
2001-11-02, 00:02:00,VALID,919.888,VALID,0,VALID,98.4324,VALID,0.101885,VALID,18.9044,VALID,345,VALID,0,
2001-11-02, 00:03:00,VALID,919.887,VALID,0,VALID,98.4387,VALID,0.0679233,VALID,18.9049,VALID,345,VALID,0,
2001-11-02, 00:04:00,VALID,919.891,VALID,0,VALID,98.4336,VALID,-0.0169808,VALID,18.8959,VALID,345,VALID,0,
2001-11-02, 00:05:00,VALID,919.882,VALID,0,VALID,98.4082,VALID,0,VALID,18.8964,VALID,345,VALID,0,
2001-11-02, 00:06:00,VALID,919.883,VALID,0,VALID,98.3891,VALID,-0.0169808,VALID,18.887,VALID,346,VALID,0,
2001-11-02, 00:07:00,VALID,919.869,VALID,0,VALID,98.3217,VALID,0,VALID,18.8703,VALID,347,VALID,0,
2001-11-02, 00:08:00,VALID,919.864,VALID,0,VALID,98.2645,VALID,-0.0339617,VALID,18.8408,VALID,347,VALID,0,
2001-11-02, 00:09:00,VALID,919.875,VALID,0,VALID,98.2747,VALID,-0.0169808,VALID,18.8413,VALID,347,VALID,0,
2001-11-02, 00:10:00,VALID,919.877,VALID,0,VALID,98.2989,VALID,-0.0169808,VALID,18.8251,VALID,347,VALID,0,
2001-11-02, 00:11:00,VALID,919.869,VALID,0,VALID,98.351,VALID,-0.0339617,VALID,18.8415,VALID,346,VALID,0,
2001-11-02, 00:12:00,VALID,919.869,VALID,0,VALID,98.3713,VALID,-0.0339617,VALID,18.8535,VALID,347,VALID,0,
2001-11-02, 00:13:00,VALID,919.868,VALID,0,VALID,98.3637,VALID,-0.0169808,VALID,18.8604,VALID,347,VALID,0,
2001-11-02, 00:14:00,VALID,919.875,VALID,0,VALID,98.3472,VALID,0,VALID,18.8641,VALID,354,VALID,0,
2001-11-02, 00:15:00,VALID,919.875,VALID,0,VALID,98.3116,VALID,-0.0169808,VALID,18.844,VALID,92,VALID,0,
2001-11-02, 00:16:00,VALID,919.88,VALID,0,VALID,98.2836,VALID,-0.0169808,VALID,18.8445,VALID,149,VALID,0,
2001-11-02, 00:17:00,VALID,919.87,VALID,0,VALID,98.2721,VALID,-0.0169808,VALID,18.8514,VALID,149,VALID,0,
2001-11-02, 00:18:00,VALID,919.881,VALID,0,VALID,98.2607,VALID,-0.0169808,VALID,18.8447,VALID,143,VALID,0,
2001-11-02, 00:19:00,VALID,919.875,VALID,0,VALID,98.2416,VALID,-0.0169808,VALID,18.8447,VALID,141,VALID,0,
2001-11-02, 00:20:00,VALID,919.889,VALID,0,VALID,98.3014,VALID,0.0169808,VALID,18.8477,VALID,141,VALID,0,
2001-11-02, 00:21:00,VALID,919.892,VALID,0,VALID,98.3281,VALID,-0.0169808,VALID,18.8778,VALID,141,VALID,0,
2001-11-02, 00:22:00,VALID,919.895,VALID,0,VALID,98.3001,VALID,-0.0339617,VALID,18.8609,VALID,141,VALID,0,
2001-11-02, 00:23:00,VALID,919.91,VALID,0,VALID,98.2683,VALID,-0.0169808,VALID,18.848,VALID,141,VALID,0,
2001-11-02, 00:24:00,VALID,919.919,VALID,0,VALID,98.2632,VALID,-0.0509425,VALID,18.848,VALID,151,VALID,0,
2001-11-02, 00:25:00,VALID,919.918,VALID,0,VALID,98.2607,VALID,0,VALID,18.8413,VALID,157,VALID,0,
2001-11-02, 00:26:00,VALID,919.916,VALID,0,VALID,98.2137,VALID,0,VALID,18.8323,VALID,157,VALID,0,
2001-11-02, 00:27:00,VALID,919.915,VALID,0,VALID,98.2353,VALID,0,VALID,18.8224,VALID,157,VALID,0,
2001-11-02, 00:28:00,VALID,919.922,VALID,0,VALID,98.3077,VALID,-0.0339617,VALID,18.8323,VALID,156,VALID,0,
2001-11-02, 00:29:00,VALID,919.93,VALID,0,VALID,98.3675,VALID,-0.0169808,VALID,18.8611,VALID,144,VALID,0,
2001-11-02, 00:30:00,VALID,919.937,VALID,0,VALID,98.3942,VALID,-0.0169808,VALID,18.8708,VALID,77,VALID,0,
2001-11-02, 00:31:00,VALID,919.949,VALID,0,VALID,98.3739,VALID,-0.0169808,VALID,18.8743,VALID,67,VALID,0,
2001-11-02, 00:32:00,VALID,919.948,VALID,0,VALID,98.3421,VALID,-0.0339617,VALID,18.848,VALID,36,VALID,0,
2001-11-02, 00:33:00,VALID,919.974,VALID,0,VALID,98.2709,VALID,0,VALID,18.8422,VALID,23,VALID,0,
2001-11-02, 00:34:00,VALID,919.994,VALID,0,VALID,98.2429,VALID,0,VALID,18.8028,VALID,23,VALID,0,
2001-11-02, 00:35:00,VALID,920.007,VALID,0,VALID,98.2098,VALID,-0.0339617,VALID,18.7797,VALID,360,VALID,0,
2001-11-02, 00:36:00,VALID,920.008,VALID,0,VALID,98.2137,VALID,0,VALID,18.7935,VALID,302,VALID,0,
2001-11-02, 00:37:00,VALID,920.01,VALID,0,VALID,98.2175,VALID,-0.0339617,VALID,18.7737,VALID,294,VALID,0,
2001-11-02, 00:38:00,VALID,920.001,VALID,0,VALID,98.1997,VALID,0,VALID,18.7679,VALID,269,VALID,0,
2001-11-02, 00:39:00,VALID,920.004,VALID,0,VALID,98.1882,VALID,0,VALID,18.7412,VALID,268,VALID,0,
2001-11-02, 00:40:00,VALID,920.001,VALID,0,VALID,98.2149,VALID,-0.0169808,VALID,18.7319,VALID,256,VALID,0,
2001-11-02, 00:41:00,VALID,919.994,VALID,0,VALID,98.2543,VALID,-0.0339617,VALID,18.716,VALID,253,VALID,0,
2001-11-02, 00:42:00,VALID,919.992,VALID,0,VALID,98.3217,VALID,-0.0509425,VALID,18.7091,VALID,253,VALID,0,
2001-11-02, 00:43:00,VALID,919.989,VALID,0,VALID,98.3866,VALID,0,VALID,18.7186,VALID,253,VALID,0,
2001-11-02, 00:44:00,VALID,919.979,VALID,0,VALID,98.3929,VALID,-0.0169808,VALID,18.7227,VALID,253,VALID,0,
2001-11-02, 00:45:00,VALID,919.975,VALID,0,VALID,98.44,VALID,0,VALID,18.7292,VALID,317,VALID,0,
2001-11-02, 00:46:00,VALID,919.963,VALID,0,VALID,98.5227,VALID,-0.0169808,VALID,18.7578,VALID,337,VALID,0,
2001-11-02, 00:47:00,VALID,919.953,VALID,0,VALID,98.4921,VALID,-0.0509425,VALID,18.7642,VALID,337,VALID,0,
2001-11-02, 00:48:00,VALID,919.94,VALID,0,VALID,98.5265,VALID,0,VALID,18.7645,VALID,5,VALID,0,
2001-11-02, 00:49:00,VALID,919.936,VALID,0,VALID,98.5494,VALID,0,VALID,18.7841,VALID,19,VALID,0,
2001-11-02, 00:50:00,VALID,919.925,VALID,0,VALID,98.5544,VALID,0,VALID,18.7871,VALID,19,VALID,0,
2001-11-02, 00:51:00,VALID,919.918,VALID,0,VALID,98.5544,VALID,-0.0169808,VALID,18.8067,VALID,24,VALID,0,
2001-11-02, 00:52:00,VALID,919.904,VALID,0,VALID,98.4921,VALID,-0.0509425,VALID,18.7834,VALID,42,VALID,0,
2001-11-02, 00:53:00,VALID,919.889,VALID,0,VALID,98.3891,VALID,-0.0169808,VALID,18.7608,VALID,45,VALID,0.410473,
2001-11-02, 00:54:00,VALID,919.888,VALID,0,VALID,98.2849,VALID,0,VALID,18.7257,VALID,53,VALID,0.68192,
2001-11-02, 00:55:00,VALID,919.889,VALID,0,VALID,98.2048,VALID,0,VALID,18.6835,VALID,61,VALID,0.627056,
2001-11-02, 00:56:00,VALID,919.885,VALID,0,VALID,98.0903,VALID,0,VALID,18.6549,VALID,72,VALID,0.73353,
2001-11-02, 00:57:00,VALID,919.868,VALID,0,VALID,97.9746,VALID,0,VALID,18.5928,VALID,84,VALID,0.854852,
2001-11-02, 00:58:00,VALID,919.868,VALID,0,VALID,97.9339,VALID,0,VALID,18.5606,VALID,94,VALID,0.918285,
2001-11-02, 00:59:00,VALID,919.858,VALID,0,VALID,97.986,VALID,-0.0169808,VALID,18.5317,VALID,107,VALID,1.02656,
2001-11-02, 01:00:00,VALID,919.844,VALID,0,VALID,98.0814,VALID,0,VALID,18.5024,VALID,124,VALID,0.794408,
2001-11-02, 01:01:00,VALID,919.821,VALID,0,VALID,98.2327,VALID,-0.0339617,VALID,18.5093,VALID,136,VALID,1.04774,
2001-11-02, 01:02:00,VALID,919.807,VALID,0,VALID,98.3052,VALID,0,VALID,18.5453,VALID,139,VALID,1.07855,
2001-11-02, 01:03:00,VALID,919.787,VALID,0,VALID,98.3472,VALID,-0.0339617,VALID,18.5349,VALID,131,VALID,0.909628,
2001-11-02, 01:04:00,VALID,919.751,VALID,0,VALID,98.3306,VALID,-0.0169808,VALID,18.5389,VALID,106,VALID,1.05561,
2001-11-02, 01:05:00,VALID,919.725,VALID,0,VALID,98.2938,VALID,-0.0339617,VALID,18.5158,VALID,91,VALID,1.16133,
2001-11-02, 01:06:00,VALID,919.69,VALID,0,VALID,98.3154,VALID,0,VALID,18.4964,VALID,70,VALID,0.653846,
2001-11-02, 01:07:00,VALID,919.661,VALID,0,VALID,98.3217,VALID,-0.0679233,VALID,18.4937,VALID,83,VALID,0.690789,
2001-11-02, 01:08:00,VALID,919.638,VALID,0,VALID,98.2721,VALID,-0.0339617,VALID,18.4736,VALID,108,VALID,0.842516,
2001-11-02, 01:09:00,VALID,919.615,VALID,0,VALID,98.3421,VALID,-0.0509425,VALID,18.4704,VALID,143,VALID,0.808594,
2001-11-02, 01:10:00,VALID,919.574,VALID,0,VALID,98.4044,VALID,0,VALID,18.4904,VALID,141,VALID,0.974301,
2001-11-02, 01:11:00,VALID,919.541,VALID,0,VALID,98.4451,VALID,0,VALID,18.493,VALID,139,VALID,0.609992,
2001-11-02, 01:12:00,VALID,919.519,VALID,0,VALID,98.4947,VALID,0.0169808,VALID,18.4925,VALID,140,VALID,0.743032,
2001-11-02, 01:13:00,VALID,919.494,VALID,0,VALID,98.5239,VALID,0,VALID,18.513,VALID,140,VALID,0.766059,
2001-11-02, 01:14:00,VALID,919.475,VALID,0,VALID,98.5773,VALID,-0.0169808,VALID,18.5093,VALID,124,VALID,0.680773,
2001-11-02, 01:15:00,VALID,919.45,VALID,0,VALID,98.5748,VALID,-0.0169808,VALID,18.5059,VALID,128,VALID,1.02801,
2001-11-02, 01:16:00,VALID,919.427,VALID,0,VALID,98.585,VALID,-0.0169808,VALID,18.4964,VALID,126,VALID,0.924409,
2001-11-02, 01:17:00,VALID,919.423,VALID,0,VALID,98.6295,VALID,-0.0169808,VALID,18.4904,VALID,117,VALID,1.12623,
2001-11-02, 01:18:00,VALID,919.396,VALID,0,VALID,98.6524,VALID,-0.0339617,VALID,18.4738,VALID,105,VALID,1.41756,
2001-11-02, 01:19:00,VALID,919.398,VALID,0,VALID,98.7223,VALID,-0.0339617,VALID,18.4773,VALID,119,VALID,1.32908,
2001-11-02, 01:20:00,VALID,919.379,VALID,0,VALID,98.7897,VALID,-0.0339617,VALID,18.4835,VALID,128,VALID,0.888363,
2001-11-02, 01:21:00,VALID,919.378,VALID,0,VALID,98.8393,VALID,-0.0509425,VALID,18.4833,VALID,129,VALID,0.770765,
2001-11-02, 01:22:00,VALID,919.374,VALID,0,VALID,98.8889,VALID,-0.0849042,VALID,18.5029,VALID,131,VALID,1.18424,
2001-11-02, 01:23:00,VALID,919.376,VALID,0,VALID,98.9079,VALID,-0.0509425,VALID,18.5098,VALID,119,VALID,0.865076,
2001-11-02, 01:24:00,VALID,919.366,VALID,0,VALID,98.9321,VALID,-0.0849042,VALID,18.513,VALID,119,VALID,0.998661,
2001-11-02, 01:25:00,VALID,919.349,VALID,0,VALID,98.9499,VALID,-0.0849042,VALID,18.5063,VALID,116,VALID,0.843133,
2001-11-02, 01:26:00,VALID,919.334,VALID,0,VALID,98.9639,VALID,-0.0339617,VALID,18.4964,VALID,131,VALID,0.468539,
2001-11-02, 01:27:00,VALID,919.317,VALID,0,VALID,98.9792,VALID,-0.0509425,VALID,18.4865,VALID,146,VALID,0.458265,
2001-11-02, 01:28:00,VALID,919.301,VALID,0,VALID,98.9944,VALID,-0.0339617,VALID,18.4969,VALID,147,VALID,0.291596,
2001-11-02, 01:29:00,VALID,919.285,VALID,0,VALID,99.0211,VALID,-0.0849042,VALID,18.4971,VALID,163,VALID,0.695898,
2001-11-02, 01:30:00,VALID,919.244,VALID,0,VALID,99.03,VALID,-0.0679233,VALID,18.4863,VALID,163,VALID,0.938117,
2001-11-02, 01:31:00,VALID,919.223,VALID,0,VALID,99.0542,VALID,-0.0679233,VALID,18.5096,VALID,159,VALID,0.743273,
2001-11-02, 01:32:00,VALID,919.202,VALID,0,VALID,99.0644,VALID,-0.0679233,VALID,18.5066,VALID,157,VALID,0.615076,
2001-11-02, 01:33:00,VALID,919.161,VALID,0,VALID,99.0707,VALID,-0.0849042,VALID,18.5098,VALID,156,VALID,0.528294,
2001-11-02, 01:34:00,VALID,919.136,VALID,0,VALID,99.0555,VALID,-0.0509425,VALID,18.5133,VALID,149,VALID,0.516314,
2001-11-02, 01:35:00,VALID,919.106,VALID,0,VALID,99.0656,VALID,-0.0679233,VALID,18.5061,VALID,141,VALID,0.491992,
2001-11-02, 01:36:00,VALID,919.077,VALID,0,VALID,99.0453,VALID,-0.101885,VALID,18.4939,VALID,123,VALID,0.470553,
2001-11-02, 01:37:00,VALID,919.052,VALID,0,VALID,99.0453,VALID,-0.0509425,VALID,18.4807,VALID,110,VALID,0.666735,
2001-11-02, 01:38:00,VALID,919.037,VALID,0,VALID,99.0351,VALID,-0.0679233,VALID,18.4614,VALID,83,VALID,0.461554,
2001-11-02, 01:39:00,VALID,919.016,VALID,0,VALID,99.044,VALID,-0.0679233,VALID,18.4353,VALID,85,VALID,0.459766,
2001-11-02, 01:40:00,VALID,919.003,VALID,0,VALID,99.0491,VALID,-0.0849042,VALID,18.4323,VALID,88,VALID,0.566612,
2001-11-02, 01:41:00,VALID,918.983,VALID,0,VALID,99.0771,VALID,-0.0509425,VALID,18.4323,VALID,94,VALID,0.521587,
2001-11-02, 01:42:00,VALID,918.966,VALID,0,VALID,99.0898,VALID,-0.0849042,VALID,18.4222,VALID,106,VALID,0.532095,
2001-11-02, 01:43:00,VALID,918.961,VALID,0,VALID,99.0796,VALID,-0.101885,VALID,18.4261,VALID,106,VALID,0.742839,
2001-11-02, 01:44:00,VALID,918.932,VALID,0,VALID,99.086,VALID,-0.0679233,VALID,18.4102,VALID,121,VALID,0.589627,
2001-11-02, 01:45:00,VALID,918.902,VALID,0,VALID,99.0974,VALID,-0.0679233,VALID,18.4099,VALID,117,VALID,0.848895,
2001-11-02, 01:46:00,VALID,918.873,VALID,0,VALID,99.0911,VALID,-0.0509425,VALID,18.3968,VALID,124,VALID,0.634924,
2001-11-02, 01:47:00,VALID,918.844,VALID,0,VALID,99.1012,VALID,-0.0849042,VALID,18.4002,VALID,115,VALID,0.682155,
2001-11-02, 01:48:00,VALID,918.813,VALID,0,VALID,99.1228,VALID,-0.0679233,VALID,18.3936,VALID,123,VALID,0.339227,
2001-11-02, 01:49:00,VALID,918.804,VALID,0,VALID,99.1419,VALID,-0.118866,VALID,18.4067,VALID,143,VALID,0.452925,
2001-11-02, 01:50:00,VALID,918.787,VALID,0,VALID,99.1559,VALID,-0.0679233,VALID,18.4194,VALID,139,VALID,0.178043,
2001-11-02, 01:51:00,VALID,918.774,VALID,0,VALID,99.1623,VALID,-0.0679233,VALID,18.4228,VALID,132,VALID,0.431332,
2001-11-02, 01:52:00,VALID,918.758,VALID,0,VALID,99.1635,VALID,-0.0849042,VALID,18.4288,VALID,122,VALID,0.234592,
2001-11-02, 01:53:00,VALID,918.733,VALID,0,VALID,99.1648,VALID,-0.0849042,VALID,18.4328,VALID,106,VALID,0.196579,
2001-11-02, 01:54:00,VALID,918.709,VALID,0,VALID,99.1724,VALID,-0.0849042,VALID,18.4457,VALID,104,VALID,0.0497768,
2001-11-02, 01:55:00,VALID,918.696,VALID,0,VALID,99.1864,VALID,-0.0849042,VALID,18.4584,VALID,135,VALID,0.574424,
2001-11-02, 01:56:00,VALID,918.685,VALID,0,VALID,99.1623,VALID,-0.0679233,VALID,18.4519,VALID,132,VALID,0.532095,
2001-11-02, 01:57:00,VALID,918.683,VALID,0,VALID,99.1737,VALID,-0.0509425,VALID,18.4418,VALID,142,VALID,0.603618,
2001-11-02, 01:58:00,VALID,918.675,VALID,0,VALID,99.175,VALID,-0.101885,VALID,18.4515,VALID,137,VALID,0.738809,
2001-11-02, 01:59:00,VALID,918.679,VALID,0,VALID,99.1979,VALID,-0.0679233,VALID,18.4685,VALID,145,VALID,0.452539,
2001-11-02, 02:00:00,VALID,918.677,VALID,0.2,VALID,99.203,VALID,-0.0509425,VALID,18.4741,VALID,137,VALID,0.343339,
2001-11-02, 02:01:00,VALID,918.682,VALID,0,VALID,99.2042,VALID,-0.0849042,VALID,18.4907,VALID,146,VALID,0.0963542,
2001-11-02, 02:02:00,VALID,918.674,VALID,0,VALID,99.203,VALID,-0.0849042,VALID,18.507,VALID,152,VALID,0.461782,
2001-11-02, 02:03:00,VALID,918.678,VALID,0,VALID,99.1941,VALID,-0.0339617,VALID,18.5031,VALID,156,VALID,0.330659,
2001-11-02, 02:04:00,VALID,918.66,VALID,0,VALID,99.1941,VALID,0.0169808,VALID,18.4893,VALID,158,VALID,0.559283,
2001-11-02, 02:05:00,VALID,918.641,VALID,0,VALID,99.203,VALID,0.0169808,VALID,18.5017,VALID,161,VALID,0.148047,
2001-11-02, 02:06:00,VALID,918.619,VALID,0,VALID,99.1953,VALID,0.0679233,VALID,18.5116,VALID,161,VALID,0.078726,
2001-11-02, 02:07:00,VALID,918.596,VALID,0,VALID,99.1864,VALID,0.0169808,VALID,18.5084,VALID,151,VALID,0.0402961,
2001-11-02, 02:08:00,VALID,918.569,VALID,0,VALID,99.175,VALID,0.0509425,VALID,18.489,VALID,132,VALID,0.372533,
2001-11-02, 02:09:00,VALID,918.541,VALID,0,VALID,99.1648,VALID,0.0169808,VALID,18.4826,VALID,116,VALID,0.129102,
2001-11-02, 02:10:00,VALID,918.522,VALID,0,VALID,99.1839,VALID,0,VALID,18.4766,VALID,134,VALID,0.119243,
2001-11-02, 02:11:00,VALID,918.512,VALID,0,VALID,99.1864,VALID,0.0169808,VALID,18.4664,VALID,143,VALID,0.29153,
2001-11-02, 02:12:00,VALID,918.49,VALID,0,VALID,99.175,VALID,0.0169808,VALID,18.4604,VALID,142,VALID,0.49451,
2001-11-02, 02:13:00,VALID,918.471,VALID,0,VALID,99.1864,VALID,0.0339617,VALID,18.4607,VALID,156,VALID,0.537109,
2001-11-02, 02:14:00,VALID,918.466,VALID,0,VALID,99.1902,VALID,0.0509425,VALID,18.4667,VALID,151,VALID,0.517144,
2001-11-02, 02:15:00,VALID,918.462,VALID,0,VALID,99.2017,VALID,0.0169808,VALID,18.4567,VALID,143,VALID,0.428925,
2001-11-02, 02:16:00,VALID,918.451,VALID,0,VALID,99.2055,VALID,0.0169808,VALID,18.4632,VALID,123,VALID,0.486909,
2001-11-02, 02:17:00,VALID,918.44,VALID,0,VALID,99.1991,VALID,0,VALID,18.4701,VALID,117,VALID,0.60259,
2001-11-02, 02:18:00,VALID,918.44,VALID,0,VALID,99.1928,VALID,-0.0169808,VALID,18.4508,VALID,109,VALID,0.42023,
2001-11-02, 02:19:00,VALID,918.44,VALID,0,VALID,99.1852,VALID,-0.0679233,VALID,18.4521,VALID,87,VALID,0.249238,
2001-11-02, 02:20:00,VALID,918.423,VALID,0,VALID,99.1864,VALID,-0.0849042,VALID,18.4455,VALID,84,VALID,0.585732,
2001-11-02, 02:21:00,VALID,918.405,VALID,0,VALID,99.1381,VALID,-0.0509425,VALID,18.4164,VALID,88,VALID,0.845806,
2001-11-02, 02:22:00,VALID,918.4,VALID,0,VALID,99.1241,VALID,0,VALID,18.3968,VALID,79,VALID,0.511719,
2001-11-02, 02:23:00,VALID,918.396,VALID,0,VALID,99.1267,VALID,-0.0169808,VALID,18.3733,VALID,69,VALID,0.587416,
2001-11-02, 02:24:00,VALID,918.389,VALID,0,VALID,99.1012,VALID,-0.0339617,VALID,18.3936,VALID,72,VALID,0.446429,
2001-11-02, 02:25:00,VALID,918.376,VALID,0,VALID,99.0466,VALID,-0.0509425,VALID,18.358,VALID,75,VALID,0.742804,
2001-11-02, 02:26:00,VALID,918.363,VALID,0,VALID,99.002,VALID,-0.0169808,VALID,18.329,VALID,71,VALID,0.703547,
2001-11-02, 02:27:00,VALID,918.36,VALID,0,VALID,98.9957,VALID,-0.0169808,VALID,18.3128,VALID,71,VALID,0.4081,
2001-11-02, 02:28:00,VALID,918.343,VALID,0,VALID,98.9563,VALID,0,VALID,18.2967,VALID,71,VALID,0.728674,
2001-11-02, 02:29:00,VALID,918.315,VALID,0,VALID,98.913,VALID,0,VALID,18.287,VALID,78,VALID,0.62207,
2001-11-02, 02:30:00,VALID,918.29,VALID,0,VALID,98.9029,VALID,-0.0339617,VALID,18.2639,VALID,76,VALID,0.85074,
2001-11-02, 02:31:00,VALID,918.263,VALID,0,VALID,98.9079,VALID,-0.0169808,VALID,18.2674,VALID,75,VALID,0.661892,
2001-11-02, 02:32:00,VALID,918.249,VALID,0,VALID,98.8978,VALID,-0.0169808,VALID,18.2639,VALID,84,VALID,0.702914,
2001-11-02, 02:33:00,VALID,918.226,VALID,0,VALID,98.9079,VALID,0,VALID,18.2708,VALID,84,VALID,0.544341,
2001-11-02, 02:34:00,VALID,918.219,VALID,0,VALID,98.9041,VALID,-0.0169808,VALID,18.2741,VALID,85,VALID,0.649586,
2001-11-02, 02:35:00,VALID,918.184,VALID,0,VALID,98.899,VALID,-0.0509425,VALID,18.284,VALID,83,VALID,0.426562,
2001-11-02, 02:36:00,VALID,918.177,VALID,0,VALID,98.8762,VALID,0,VALID,18.2773,VALID,66,VALID,0.426082,
2001-11-02, 02:37:00,VALID,918.165,VALID,0,VALID,98.9003,VALID,-0.0169808,VALID,18.2773,VALID,81,VALID,0.658923,
2001-11-02, 02:38:00,VALID,918.151,VALID,0,VALID,98.9003,VALID,0,VALID,18.2768,VALID,70,VALID,0.674342,
2001-11-02, 02:39:00,VALID,918.141,VALID,0,VALID,98.9067,VALID,0,VALID,18.2833,VALID,64,VALID,0.706836,
2001-11-02, 02:40:00,VALID,918.136,VALID,0,VALID,98.9181,VALID,0,VALID,18.2865,VALID,72,VALID,0.64926,
2001-11-02, 02:41:00,VALID,918.119,VALID,0,VALID,98.913,VALID,-0.0169808,VALID,18.2798,VALID,90,VALID,0.719367,
2001-11-02, 02:42:00,VALID,918.103,VALID,0,VALID,98.8914,VALID,0,VALID,18.2704,VALID,103,VALID,0.898649,
2001-11-02, 02:43:00,VALID,918.092,VALID,0,VALID,98.9016,VALID,-0.0339617,VALID,18.2704,VALID,101,VALID,0.840495,
2001-11-02, 02:44:00,VALID,918.094,VALID,0,VALID,98.9346,VALID,-0.0169808,VALID,18.2639,VALID,102,VALID,0.781901,
2001-11-02, 02:45:00,VALID,918.098,VALID,0,VALID,98.9499,VALID,0,VALID,18.2639,VALID,104,VALID,0.549733,
2001-11-02, 02:46:00,VALID,918.1,VALID,0,VALID,98.9728,VALID,0,VALID,18.2743,VALID,114,VALID,0.548775,
2001-11-02, 02:47:00,VALID,918.091,VALID,0,VALID,98.997,VALID,-0.0169808,VALID,18.2738,VALID,114,VALID,0.57463,
2001-11-02, 02:48:00,VALID,918.085,VALID,0,VALID,99.002,VALID,0,VALID,18.287,VALID,113,VALID,0.61801,
2001-11-02, 02:49:00,VALID,918.095,VALID,0,VALID,98.9881,VALID,0,VALID,18.2868,VALID,102,VALID,0.695884,
2001-11-02, 02:50:00,VALID,918.083,VALID,0,VALID,99.002,VALID,0,VALID,18.2831,VALID,95,VALID,0.562706,
2001-11-02, 02:51:00,VALID,918.072,VALID,0,VALID,99.016,VALID,0,VALID,18.2994,VALID,87,VALID,0.673725,
2001-11-02, 02:52:00,VALID,918.061,VALID,0,VALID,99.0122,VALID,-0.0169808,VALID,18.3031,VALID,97,VALID,0.979818,
2001-11-02, 02:53:00,VALID,918.034,VALID,0,VALID,99.0186,VALID,-0.0169808,VALID,18.2964,VALID,107,VALID,0.906461,
2001-11-02, 02:54:00,VALID,918.028,VALID,0,VALID,99.0262,VALID,0,VALID,18.3091,VALID,125,VALID,0.953125,
2001-11-02, 02:55:00,VALID,918.035,VALID,0,VALID,98.9906,VALID,0,VALID,18.316,VALID,125,VALID,1.12623,
2001-11-02, 02:56:00,VALID,918.033,VALID,0,VALID,98.9753,VALID,0,VALID,18.3389,VALID,126,VALID,1.04624,
2001-11-02, 02:57:00,VALID,918.036,VALID,0,VALID,98.9168,VALID,0,VALID,18.3384,VALID,134,VALID,0.995066,
2001-11-02, 02:58:00,VALID,918.036,VALID,0,VALID,98.8825,VALID,-0.0339617,VALID,18.3421,VALID,136,VALID,1.06039,
2001-11-02, 02:59:00,VALID,918.036,VALID,0,VALID,98.8545,VALID,0,VALID,18.3444,VALID,141,VALID,1.0041,
2001-11-02, 03:00:00,VALID,918.015,VALID,0,VALID,98.8507,VALID,0,VALID,18.3675,VALID,141,VALID,1.23951,
2001-11-02, 03:01:00,VALID,918.006,VALID,0,VALID,98.8673,VALID,-0.0169808,VALID,18.3843,VALID,131,VALID,0.850043,
2001-11-02, 03:02:00,VALID,918.004,VALID,0,VALID,98.8507,VALID,-0.0169808,VALID,18.3871,VALID,144,VALID,0.83277,
2001-11-02, 03:03:00,VALID,917.993,VALID,0,VALID,98.8406,VALID,-0.0339617,VALID,18.3776,VALID,139,VALID,1.22276,
2001-11-02, 03:04:00,VALID,917.985,VALID,0,VALID,98.8634,VALID,-0.101885,VALID,18.3742,VALID,138,VALID,1.09191,
2001-11-02, 03:05:00,VALID,917.988,VALID,0,VALID,98.8876,VALID,-0.0509425,VALID,18.3744,VALID,134,VALID,0.875391,
2001-11-02, 03:06:00,VALID,917.995,VALID,0,VALID,98.9003,VALID,-0.0509425,VALID,18.3679,VALID,136,VALID,0.731571,
2001-11-02, 03:07:00,VALID,917.981,VALID,0,VALID,98.9016,VALID,-0.0679233,VALID,18.3543,VALID,124,VALID,0.523438,
2001-11-02, 03:08:00,VALID,917.97,VALID,0,VALID,98.899,VALID,-0.0509425,VALID,18.3483,VALID,100,VALID,0.610814,
2001-11-02, 03:09:00,VALID,917.97,VALID,0,VALID,98.8978,VALID,-0.0509425,VALID,18.3421,VALID,96,VALID,0.685742,
2001-11-02, 03:10:00,VALID,917.971,VALID,0,VALID,98.8914,VALID,-0.0679233,VALID,18.3156,VALID,118,VALID,1.15132,
2001-11-02, 03:11:00,VALID,917.958,VALID,0,VALID,98.9105,VALID,-0.0339617,VALID,18.3193,VALID,123,VALID,1.13261,
2001-11-02, 03:12:00,VALID,917.954,VALID,0,VALID,98.9385,VALID,-0.0679233,VALID,18.3195,VALID,134,VALID,0.90815,
2001-11-02, 03:13:00,VALID,917.948,VALID,0,VALID,98.9461,VALID,-0.0509425,VALID,18.3426,VALID,124,VALID,0.773872,
2001-11-02, 03:14:00,VALID,917.947,VALID,0,VALID,98.9346,VALID,-0.0849042,VALID,18.3387,VALID,97,VALID,0.603299,
2001-11-02, 03:15:00,VALID,917.944,VALID,0,VALID,98.9499,VALID,-0.0679233,VALID,18.3451,VALID,93,VALID,0.45846,
2001-11-02, 03:16:00,VALID,917.948,VALID,0,VALID,98.9525,VALID,-0.0849042,VALID,18.3483,VALID,116,VALID,0.441934,
2001-11-02, 03:17:00,VALID,917.954,VALID,0,VALID,98.9372,VALID,-0.0509425,VALID,18.3417,VALID,109,VALID,0.138158,
2001-11-02, 03:18:00,VALID,917.942,VALID,0,VALID,98.9525,VALID,-0.0339617,VALID,18.3518,VALID,117,VALID,0.020148,
2001-11-02, 03:19:00,VALID,917.935,VALID,0,VALID,98.9321,VALID,-0.101885,VALID,18.3516,VALID,134,VALID,0.387576,
2001-11-02, 03:20:00,VALID,917.924,VALID,0,VALID,98.9118,VALID,-0.0679233,VALID,18.3423,VALID,138,VALID,0.356291,
2001-11-02, 03:21:00,VALID,917.921,VALID,0,VALID,98.8596,VALID,-0.0849042,VALID,18.3257,VALID,96,VALID,0.158717,
2001-11-02, 03:22:00,VALID,917.892,VALID,0,VALID,98.838,VALID,-0.0679233,VALID,18.3128,VALID,120,VALID,0.296224,
2001-11-02, 03:23:00,VALID,917.884,VALID,0,VALID,98.7782,VALID,-0.0679233,VALID,18.3031,VALID,127,VALID,0.466427,
2001-11-02, 03:24:00,VALID,917.87,VALID,0,VALID,98.6867,VALID,-0.0679233,VALID,18.2874,VALID,133,VALID,0.535268,
2001-11-02, 03:25:00,VALID,917.868,VALID,0,VALID,98.5888,VALID,-0.0849042,VALID,18.2577,VALID,142,VALID,0.678454,
2001-11-02, 03:26:00,VALID,917.867,VALID,0,VALID,98.5417,VALID,-0.0509425,VALID,18.2674,VALID,136,VALID,0.570946,
2001-11-02, 03:27:00,VALID,917.866,VALID,0,VALID,98.4527,VALID,-0.0509425,VALID,18.2838,VALID,131,VALID,0.631785,
2001-11-02, 03:28:00,VALID,917.871,VALID,0,VALID,98.2823,VALID,-0.0679233,VALID,18.2768,VALID,152,VALID,0.821157,
2001-11-02, 03:29:00,VALID,917.875,VALID,0,VALID,98.1819,VALID,-0.0679233,VALID,18.2932,VALID,149,VALID,0.874609,
2001-11-02, 03:30:00,VALID,917.88,VALID,0,VALID,98.1005,VALID,-0.0169808,VALID,18.2994,VALID,158,VALID,0.736842,
2001-11-02, 03:31:00,VALID,917.904,VALID,0,VALID,97.9949,VALID,-0.0509425,VALID,18.3193,VALID,156,VALID,0.85178,
2001-11-02, 03:32:00,VALID,917.915,VALID,0,VALID,97.8868,VALID,-0.0679233,VALID,18.3193,VALID,149,VALID,0.768792,
2001-11-02, 03:33:00,VALID,917.926,VALID,0,VALID,97.8525,VALID,-0.0849042,VALID,18.3324,VALID,141,VALID,0.734797,
2001-11-02, 03:34:00,VALID,917.944,VALID,0,VALID,97.7915,VALID,-0.101885,VALID,18.3393,VALID,136,VALID,0.621094,